Date String (YYYY-MM-DD hh:mm:ss) UTC,Instrument flags,Ambient pressure (hPa),Sample flow (lpm),Bypass flow (lpm),Sample temperature (°C),Ambient temperature (°C),ASC tube jacket temperature (°C),LED temperature (°C),Box temperature (°C),Sample RH (%),Span deviation,Mass concentration (μg/m³),Mass concentration (μg/m³),Mass concentration (μg/m³)
DateTimeUTC,F1_M11,P_M11,Q1_M11,Q2_M11,T1_M11,T2_M11,T3_M11,T4_M11,T5_M11,U1_M11,ZSPAN_M11,X0_M11,X2_M11,X1_M11
2023-05-05 01:00:00,,0823.1,5.00,0.00,30.3,28.8,00.0,38.6,31.8,17.9,0000.0,0004.53,0002.46,0001.51
2023-05-05 01:01:00,,0823.1,5.00,0.00,30.3,28.8,00.0,38.6,31.8,17.9,0000.0,0004.37,0002.46,0001.52
2023-05-05 01:02:00,,0823.1,5.00,0.00,30.3,28.9,00.0,38.6,31.9,18.0,0000.0,0004.18,0002.44,0001.54
2023-05-05 01:03:00,,0823.2,5.01,0.00,30.3,28.9,00.0,38.6,31.9,17.8,0000.0,0004.33,0002.50,0001.55
2023-05-05 01:04:00,,0823.2,5.00,0.00,30.3,28.9,00.0,38.6,31.9,17.9,0000.0,0004.29,0002.49,0001.54
2023-05-05 01:05:00,,0823.3,4.99,0.00,30.3,29.0,00.0,38.7,31.9,17.8,0000.0,0004.49,0002.58,0001.54
2023-05-05 01:06:00,,0823.3,5.00,0.00,30.4,29.0,00.0,38.7,31.9,17.8,0000.0,0004.51,0002.57,0001.54
2023-05-05 01:07:00,,0823.4,5.00,0.00,30.4,29.0,00.0,38.7,31.9,17.6,0000.0,0004.52,0002.58,0001.57
2023-05-05 01:08:00,,0823.4,5.00,0.00,30.4,29.0,00.0,38.7,31.9,17.7,0000.0,0004.59,0002.56,0001.56
2023-05-05 01:09:00,,0823.5,5.00,0.00,30.4,29.1,00.0,38.7,31.9,17.8,0000.0,0004.95,0002.57,0001.55
2023-05-05 01:10:00,,0823.5,4.99,0.00,30.4,29.1,00.0,38.7,32.0,17.9,0000.0,0005.32,0002.64,0001.54
2023-05-05 01:11:00,,0823.5,5.00,0.00,30.4,29.1,00.0,38.7,32.0,18.0,0000.0,0005.57,0002.70,0001.54
2023-05-05 01:12:00,,0823.5,5.02,0.00,30.4,29.1,00.0,38.8,32.0,18.0,0000.0,0005.76,0002.75,0001.54
2023-05-05 01:13:00,,0823.5,4.99,0.00,30.4,29.0,00.0,38.8,32.0,18.3,0000.0,0006.09,0002.83,0001.54
2023-05-05 01:14:00,,0823.5,4.99,0.00,30.4,29.0,00.0,38.8,32.0,18.7,0000.0,0006.47,0002.96,0001.57
2023-05-05 01:15:00,,0823.6,5.01,0.00,30.4,29.0,00.0,38.8,31.9,18.9,0000.0,0007.65,0003.13,0001.62
2023-05-05 01:16:00,,0823.6,4.99,0.00,30.4,28.9,00.0,38.8,31.8,19.0,0000.0,0009.00,0003.32,0001.69
2023-05-05 01:17:00,,0823.6,5.00,0.00,30.3,28.8,00.0,38.8,31.8,19.1,0000.0,0010.49,0003.60,0001.78
2023-05-05 01:18:00,,0823.6,5.00,0.00,30.3,28.8,00.0,38.8,31.8,19.2,0000.0,0012.37,0003.87,0001.84
2023-05-05 01:19:00,,0823.6,5.00,0.00,30.3,28.7,00.0,38.7,31.7,19.4,0000.0,0013.55,0004.27,0001.91
2023-05-05 01:20:00,,0823.6,5.00,0.00,30.2,28.6,00.0,38.7,31.7,19.4,0000.0,0014.75,0004.56,0002.00
2023-05-05 01:21:00,,0823.5,5.01,0.00,30.2,28.6,00.0,38.7,31.7,19.4,0000.0,0016.73,0004.85,0002.11
2023-05-05 01:22:00,,0823.6,5.00,0.00,30.2,28.5,00.0,38.7,31.6,19.4,0000.0,0019.23,0005.18,0002.21
2023-05-05 01:23:00,,0823.6,5.01,0.00,30.2,28.4,00.0,38.7,31.6,19.4,0000.0,0021.81,0005.53,0002.31
2023-05-05 01:24:00,,0823.6,5.00,0.00,30.1,28.4,00.0,38.7,31.5,19.5,0000.0,0023.28,0005.81,0002.40
2023-05-05 01:25:00,,0823.6,4.99,0.00,30.1,28.4,00.0,38.7,31.5,19.6,0000.0,0025.35,0006.05,0002.46
2023-05-05 01:26:00,,0823.7,5.01,0.00,30.1,28.4,00.0,38.7,31.5,19.7,0000.0,0026.52,0006.26,0002.52
2023-05-05 01:27:00,,0823.7,5.01,0.00,30.1,28.4,00.0,38.7,31.5,19.8,0000.0,0027.11,0006.45,0002.58
2023-05-05 01:28:00,,0823.7,4.99,0.00,30.1,28.4,00.0,38.6,31.5,19.9,0000.0,0028.09,0006.72,0002.62
2023-05-05 01:29:00,,0823.7,5.00,0.00,30.1,28.4,00.0,38.6,31.5,20.0,0000.0,0028.88,0006.91,0002.67
2023-05-05 01:30:00,,0823.7,5.01,0.00,30.0,28.3,00.0,38.6,31.5,20.1,0000.0,0029.83,0007.00,0002.71
2023-05-05 01:31:00,,0823.8,5.01,0.00,30.0,28.3,00.0,38.6,31.4,20.2,0000.0,0030.66,0007.08,0002.75
2023-05-05 01:32:00,,0823.8,5.01,0.00,30.0,28.3,00.0,38.6,31.4,20.3,0000.0,0030.87,0007.16,0002.78
2023-05-05 01:33:00,,0823.7,4.98,0.00,30.0,28.2,00.0,38.6,31.4,20.4,0000.0,0030.20,0007.14,0002.79
2023-05-05 01:34:00,,0823.8,5.00,0.00,29.9,28.2,00.0,38.5,31.4,20.4,0000.0,0028.45,0007.11,0002.80
2023-05-05 01:35:00,,0823.8,5.00,0.00,29.9,28.2,00.0,38.5,31.3,20.5,0000.0,0029.44,0007.10,0002.81
2023-05-05 01:36:00,,0823.8,5.00,0.00,29.9,28.1,00.0,38.5,31.3,20.5,0000.0,0029.82,0007.16,0002.83
2023-05-05 01:37:00,,0823.8,5.00,0.00,29.9,28.1,00.0,38.5,31.3,20.6,0000.0,0029.93,0007.23,0002.82
2023-05-05 01:38:00,,0823.8,5.01,0.00,29.9,28.1,00.0,38.5,31.3,20.6,0000.0,0029.37,0007.20,0002.81
2023-05-05 01:39:00,,0823.8,5.00,0.00,29.8,28.1,00.0,38.5,31.3,20.6,0000.0,0029.22,0007.16,0002.83
2023-05-05 01:40:00,,0823.8,4.99,0.00,29.8,28.1,00.0,38.5,31.3,20.7,0000.0,0028.35,0007.02,0002.81
2023-05-05 01:41:00,,0823.8,5.01,0.00,29.8,28.1,00.0,38.4,31.3,20.7,0000.0,0028.26,0006.86,0002.84
2023-05-05 01:42:00,,0823.9,5.00,0.00,29.8,28.1,00.0,38.4,31.3,20.8,0000.0,0028.04,0006.83,0002.83
2023-05-05 01:43:00,,0823.9,5.00,0.00,29.8,28.1,00.0,38.4,31.3,20.8,0000.0,0028.46,0006.79,0002.82
2023-05-05 01:44:00,,0824.0,5.01,0.00,29.8,28.2,00.0,38.4,31.3,20.8,0000.0,0028.79,0006.83,0002.81
2023-05-05 01:45:00,,0824.0,5.00,0.00,29.8,28.2,00.0,38.4,31.3,20.8,0000.0,0029.56,0006.92,0002.81
2023-05-05 01:46:00,,0824.0,4.99,0.00,29.8,28.2,00.0,38.4,31.3,20.7,0000.0,0028.72,0006.88,0002.83
2023-05-05 01:47:00,,0824.0,4.99,0.00,29.8,28.2,00.0,38.4,31.3,20.7,0000.0,0027.57,0006.89,0002.82
2023-05-05 01:48:00,,0824.0,5.00,0.00,29.8,28.3,00.0,38.4,31.3,20.7,0000.0,0027.04,0006.83,0002.80
2023-05-05 01:49:00,,0824.0,5.01,0.00,29.8,28.3,00.0,38.4,31.4,20.7,0000.0,0026.26,0006.78,0002.79
2023-05-05 01:50:00,,0824.0,5.01,0.00,29.8,28.3,00.0,38.4,31.4,20.7,0000.0,0026.35,0006.69,0002.75
2023-05-05 01:51:00,,0824.1,4.99,0.00,29.8,28.3,00.0,38.4,31.4,20.7,0000.0,0025.92,0006.63,0002.74
2023-05-05 01:52:00,,0824.2,5.00,0.00,29.9,28.3,00.0,38.4,31.4,20.7,0000.0,0025.20,0006.64,0002.72
2023-05-05 01:53:00,,0824.1,5.00,0.00,29.9,28.3,00.0,38.4,31.4,20.7,0000.0,0024.06,0006.63,0002.72
2023-05-05 01:54:00,,0824.1,5.01,0.00,29.9,28.3,00.0,38.4,31.4,20.7,0000.0,0022.45,0006.58,0002.71
2023-05-05 01:55:00,,0824.2,5.00,0.00,29.9,28.4,00.0,38.4,31.4,20.6,0000.0,0021.56,0006.50,0002.70
2023-05-05 01:56:00,,0824.3,5.00,0.00,29.9,28.4,00.0,38.4,31.4,20.6,0000.0,0021.76,0006.40,0002.69
2023-05-05 01:57:00,,0824.3,5.01,0.00,29.9,28.4,00.0,38.4,31.5,20.6,0000.0,0021.54,0006.35,0002.67
2023-05-05 01:58:00,,0824.3,5.01,0.00,29.9,28.5,00.0,38.4,31.5,20.6,0000.0,0021.42,0006.27,0002.67
2023-05-05 01:59:00,,0824.4,5.00,0.00,30.0,28.5,00.0,38.4,31.6,20.5,0000.0,0021.00,0006.23,0002.70
